{"data":{"norad_id":59401,"intl_designator":"2024-064D","name":"STARLINK-31507","alt_names":[],"object_type":"PAYLOAD","status":"ACTIVE","operator":null,"country":"US","launch_date":"2024-04-05","launch_site_code":"AFETR","launch_vehicle":null,"mission":null,"orbit_class":"UNKNOWN","rcs_meters":null,"size_class":null,"mass_kg":null,"dimensions":null,"purposes":["comms"],"wikipedia_slug":null,"has_3d_model":false,"image_url":null,"decayed_at":null,"tle_current":{"epoch":"2026-05-24T15:27:59.235840Z","epoch_age_seconds":99643,"freshness":"FRESH","line1":"1 59401U 24064D   26144.64443560 -.00001588  00000+0 -48201-4 0  9996","line2":"2 59401  43.0009 347.0833 0001240 265.0040  95.0670 15.27574138120787","mean_motion":15.27574138,"eccentricity":0.000124,"inclination_deg":43.0009,"raan_deg":347.0833,"arg_perigee_deg":265.004,"mean_anomaly_deg":95.067,"bstar":-4.8201e-5,"rev_number":12078,"period_min":94.267110458242,"perigee_km":482.21585978015,"apogee_km":483.91743828511,"semimajor_km":6861.2036490326,"source":"CELESTRAK","updated_at":"2026-05-25T13:38:18.939321Z"}}}